Location: ??????
(42.0089°N, 44.3281°E)
Time: 18:11:10
(UTC+00:00)

USA 267 - Pass Details

Date: 03 June 2022
Orbit: 1101 x 1106 km, 123.0° (Epoch: 28 June)

Event Time Altitude Azimuth Distance (km) Brightness Sun altitude
Rises 21:47:54 0° 116° (ESE) 3,909 6.0 -24.7°
Reaches altitude 10° 21:50:23 10° 113° (ESE) 2,954 5.4 -24.6°
Maximum altitude 21:56:48 62° 35° (NE) 1,232 3.7 -24.3°
Drops below altitude 10° 22:03:13 10° 317° (NW) 2,964 5.9 -24.0°
Sets 22:05:43 0° 314° (NW) 3,925 6.5 -23.9°
